Other Public Products
Issued by NWS Grand Forks, ND

Home | Current Version | Previous Version | Text Only | Print | Product List | Glossary On
Versions: 1 2 3 4 5 6 7 8 9 10 11 12 13 14 15 16 17 18 19 20 21 22 23 24 25 26 27 28 29 30 31 32 33 34 35 36 37 38 39 40 41 42 43 44 45 46 47 48 49 50
000
FPUS83 KFGF 241731
OPUFGF
PRAIRIE TO PINES WEATHER ROUNDUP
NATIONAL WEATHER SERVICE EASTERN NORTH DAKOTA/GRAND FORKS ND
1200 PM CDT THU MAY 24 2018

 **SATELLITE DATA USED TO AUGMENT SKY COVER AT AUTOMATED STATIONS**
 *****  WEATHER ACROSS EASTERN NORTH DAKOTA  *****

CITY           SKY/WX    TMP DP  RH WIND       PRES   REMARKS
GRAND FORKS    PTSUNNY   85  61  44 S18G28    29.79R
GRND FORKS AFB FAIR      84  59  41 SW14G21   29.79S
GRND FORKS NWS   N/A     83  59  44 SW14      29.76F
BUXTON           N/A     82  61  48 SW13        N/A
DEVILS LAKE    FAIR      77  60  55 VRB3      29.79F
FARGO          FAIR      76  63  64 S17G24    29.86R
WAHPETON ARPT  FAIR      82  54  36 SW6G17    29.86F
$$

 *****  WEATHER ACROSS CENTRAL AND WESTERN NORTH DAKOTA  *****

CITY           SKY/WX    TMP DP  RH WIND       PRES   REMARKS
JAMESTOWN      FAIR      79  60  52 S16G22    29.81F
BISMARCK       FAIR      77  57  50 S10       29.79S
MINOT          FAIR      83  52  34 SW15      29.73S
MINOT AFB      FAIR      81  56  41 SW5       29.71S
GARRISON         N/A     77  52  41 SW12      29.75S
WILLISTON      CLOUDY    70  62  76 S9        29.77S
DICKINSON      FAIR      73  54  51 W13G22    29.81S
HETTINGER      FAIR      74  54  49 W21       29.86R
$$

 *****  OTHER OBSERVATIONS NORTHEAST NORTH DAKOTA  *****

CITY           SKY/WX    TMP DP  RH WIND       PRES   REMARKS
WALHALLA       FAIR      82  66  57 S8G15     29.75F
LANGDON        FAIR      81  61  50 SW10G18   29.79S
CAVALIER         N/A     81  64  57 SE10      29.75F
GRAFTON        FAIR      82  64  54 S10G20    29.79F
CANDO          FAIR      79  63  57 S9        29.79F
FORT TOTTEN      N/A     81  56  42 SW3       29.95S
ROLLA          FAIR      77  61  57 S16       29.77S
RUGBY          NOT AVBL
 ***** THE ABOVE OBSERVATIONS ARE NON NWS ARE NOT QUALITY
        CONTROLLED AND MAY MIS-REPORT RAIN FOR SNOW...
$$

 *****  OTHER OBSERVATIONS SOUTHEAST NORTH DAKOTA *****

CITY           SKY/WX    TMP DP  RH WIND       PRES   REMARKS
COOPERSTOWN    FAIR      82  57  42 SW13G20   29.82S
VALLEY CITY    FAIR      79  59  50 SW14G22   29.85S
OAKES            N/A     77  63  61 S17       29.85F
GWINNER          N/A     81  59  47 S9        29.85F
SHEYENNE NWR     N/A     71  62  73 SW7       29.95S
BUFFALO          N/A     76  53  44 W12         N/A
WYNDMERE       NOT AVBL
 ***** THE ABOVE OBSERVATIONS ARE NON NWS ARE NOT QUALITY
       CONTROLLED AND MAY MIS-REPORT RAIN FOR SNOW...
$$

  *****  WEATHER ACROSS NORTHERN MINNESOTA  *****

CITY           SKY/WX    TMP DP  RH WIND       PRES   REMARKS
FLAG ISLAND    DRIZZLE   70  63  78 SE12      29.84F
WARROAD        FAIR      79  70  73 SE15      29.85F
ROSEAU         FAIR      79  70  73 SE14      29.82F
HALLOCK        FAIR      82  64  54 S14       29.78F
THF RVR FALLS  PTSUNNY   80  64  58 S21G26    29.84F
HALSTAD          N/A     82  63  51 S17         N/A
FOSSTON        FAIR      75  57  53 S14       29.87F
BAUDETTE       FAIR      76  64  66 SE16G26   29.88F
WASKISH          N/A     79  64  61 SE14G24   29.87F
CROOKSTON      FAIR      81  64  57 S18       29.82S
$$
  *****  WEATHER ACROSS CENTRAL AND WEST MINNESOTA  *****

CITY           SKY/WX    TMP DP  RH WIND       PRES   REMARKS
BEMIDJI        FAIR      79  65  64 SE13      29.90S
PARK RAPIDS    TSTM      74  67  78 SE14G25   29.92R
WADENA         FAIR      79  66  65 S9        29.92F
DETROIT LAKES  FAIR      70  63  78 SE8       29.91F
MOORHEAD       FAIR      73  63  68 S12       29.87F
FERGUS FALLS   PTSUNNY   79  64  61 S6        29.85F
ELBOW LAKE     FAIR      84  63  48 SW15G21   29.89F
MORRIS MN      FAIR      84  63  48 S16G22    29.89F
STAPLES        FAIR      77  64  65 S10       29.93S
WHEATON        FAIR      82  57  42 S8G18     29.88F
$$
  *****  WEATHER ELSEWHERE ACROSS MINNESOTA  *****

CITY           SKY/WX    TMP DP  RH WIND       PRES   REMARKS
DULUTH         PTSUNNY   71  66  84 SE9       30.02F
INTRNTL FALLS  CLOUDY    72  67  84 S8        29.93F
ELY            LGT RAIN  64  64 100 SE7       30.02F
CLOQUET        FAIR      72  64  78 SE7       30.01F
BRAINERD       FAIR      79  66  64 S10       29.95F
HIBBING        FAIR      67  65  93 SE7       29.99F
ALEXANDRIA     PTSUNNY   82  63  52 S16       29.94S
SAINT CLOUD    FAIR      87  63  44 S17G26    29.94F
MINNEAPOLIS    PTSUNNY   88  65  46 S14       29.98F HX  90
$$

  *****  WEATHER ACROSS SOUTH DAKOTA  *****

CITY           SKY/WX    TMP DP  RH WIND       PRES   REMARKS
SIOUX FALLS    FAIR      80  69  69 S21G29    29.93R
BROOKINGS      FAIR      77  63  61 S12       29.94R
WATERTOWN      FAIR      80  59  48 SW15      29.91F
HURON          FAIR      81  61  50 VRB6      29.89S
SISSETON         N/A     82  61  48 SW12      29.87S
ABERDEEN       FAIR      81  58  45 SW17G26   29.87F
MITCHELL       FAIR      77  64  64 S8        29.92R
PIERRE         FAIR      78  63  59 VRB7      29.86F
MOBRIDGE       FAIR      79  61  53 S14       29.81F
RAPID CITY     FAIR      77  53  43 N10G18    29.92R
$$

  *****  SOME WEATHER IN NEARBY STATES *****

CITY           SKY/WX    TMP DP  RH WIND       PRES   REMARKS
GLASGOW MT     FAIR      73  57  57 NW12      29.79R
GREAT FALLS MT FAIR      74  48  39 SW26G35   29.87S
CHEYENNE WY    FAIR      72  39  30 W12       30.15S
SCOTTSBLUFF NE FAIR      76  51  41 W13       30.03F
OMAHA NE       PTSUNNY   82  64  54 SE13      30.02F
DES MOINES IA  PTSUNNY   84  64  50 S13       30.06F
DAVENPORT IA   FAIR      83  61  47 S8        30.14F
CHICAGO IL     FAIR      82  55  39 S7        30.16F
EAU CLAIRE WI  FAIR      86  66  51 SW10G20   30.04F
LA CROSSE WI   FAIR      83  65  54 S12       30.07F
$$

  *****  SOME NATIONAL WEATHER *****

CITY           SKY/WX    TMP DP  RH WIND       PRES   REMARKS
LA GUARDIA NY  FAIR      79  35  20 NE10      30.12F
RALEIGH NC     PTSUNNY   82  65  56 E9        30.18S
ATLANTA GA     PTSUNNY   82  69  64 E8        30.13F
NEW ORLEANS LA TSTM      81  76  84 CALM      30.08S
OKLAHOMA CITY  FAIR      84  63  49 S14       30.07S
ALBUQUERQUE NM FAIR      77  26  15 VRB5      30.23S
SALT LAKE CITY MOSUNNY   73  45  35 SE12      30.10S
LOS ANGELES CA CLOUDY    61  55  81 W7        30.09S
BOISE ID       FAIR      72  53  51 NE3       30.04R
SEATTLE WA     CLOUDY    57  51  80 SW7       30.08R
$$

*** WEATHER ACROSS MANITOBA...SASKATCHEWAN AND ONTARIO ***
                ***ONTARIO***

CITY           SKY/WX    TMP DP  RH WIND       PRES   REMARKS
GERALDTON      PTSUNNY   82  48  30 W13       29.97F
THUNDER BAY    CLOUDY    64  48  55 E13       30.01F
SIOUX LOOKOUT  CLOUDY    81  61  50 S9        29.93F
TORONTO        MOSUNNY   75  54  46 SE9       30.15F
BIG TROUT LK   SUNNY     84  46  26 W13       29.80F
PICKLE LAKE    MOSUNNY   82  48  30 SW12      29.90F
DRYDEN         PTSUNNY   73  61  64 S12G17    29.93F
KENORA         PTSUNNY   75  64  69 S18G25    29.88F
$$
                *** MANITOBA***

CITY           SKY/WX    TMP DP  RH WIND       PRES   REMARKS
BRANDON        PTSUNNY   68  63  83 SE8       29.76S
DAUPHIN        LGT RAIN  70  63  78 SE16      29.72F
ISLAND LAKE    PTSUNNY   84  54  34 W6        29.80F
PILOT MOUND      N/A     70  64  83 S15         N/A
THE PAS        PTSUNNY   75  57  53 N7        29.72F
THOMPSON       MOSUNNY   86  46  25 SW9       29.74F
WINNIPEG       CLOUDY    73  59  60 NW9       29.78F
LYNN LAKE        N/A     88  45  22 MISG      29.74F
CHURCHILL      MOSUNNY   41  34  75 NE8       29.83R
GILLAM         MOSUNNY   79  48  34 NW8       29.72F
$$
                ***SASKATCHEWAN***

CITY           SKY/WX    TMP DP  RH WIND       PRES   REMARKS
ESTEVAN        CLOUDY    73  57  56 S6        29.73S
KINDERSLEY     MOSUNNY   73  52  46 VRB3      29.72S
LLOYDMINSTER   LGT RAIN  59  57  94 N5        29.73F FOG
PRINCE ALBERT  CLOUDY    72  57  60 E6        29.74
REGINA         CLOUDY    68  59  73 W10       29.73F
YORKTON        CLOUDY    72  64  78 SE8       29.73S



USA.gov is the U.S. government's official web portal to all federal, state and local government web resources and services.